OSCAR 7 (AO-7) 1 07530U 74089B 26106.80566243 -.00000040 00000+0 40452-4 0 9995 2 07530 101.9942 119.4056 0011891 247.5514 296.5364 12.53697138352827 PHASE 3B (AO-10) 1 14129U 83058B 26102.81319713 -.00000295 00000+0 00000+0 0 9990 2 14129 25.8997 230.4827 6034279 97.6141 330.5213 2.05874162294146 UOSAT 2 (UO-11) 1 14781U 84021B 26106.46762200 .00000816 00000+0 88984-4 0 9993 2 14781 97.8007 72.7583 0008500 37.5864 322.5946 14.90633695247934 LUSAT (LO-19) 1 20442U 90005G 26106.57584663 .00000075 00000+0 43653-4 0 9991 2 20442 98.8899 126.6712 0012112 31.8972 328.2942 14.34103489893565 EYESAT A (AO-27) 1 22825U 93061C 26106.88602292 .00000056 00000+0 38217-4 0 9995 2 22825 98.6916 174.3111 0007231 281.5789 78.4582 14.30925414698236 ITAMSAT (IO-26) 1 22826U 93061D 26106.95356781 .00000061 00000+0 39814-4 0 9993 2 22826 98.6863 174.2898 0007745 262.2463 97.7841 14.31350696698556 RADIO ROSTO (RS15) 1 23439U 94085A 26106.92051557 -.00000053 00000+0 -28960-3 0 9993 2 23439 64.8195 42.2992 0154131 14.9992 345.5430 11.27583848288990 JAS-2 (FO-29) 1 24278U 96046B 26106.87008483 -.00000020 00000+0 18688-4 0 9998 2 24278 98.5316 324.1138 0348833 255.5235 100.6968 13.53271232464873 TECHSAT 1B (GO-32) 1 25397U 98043D 26106.74199182 .00000024 00000+0 30711-4 0 9997 2 25397 99.0059 97.9572 0002084 58.5198 301.6183 14.24416052442583 ISS (ZARYA) 1 25544U 98067A 26106.84451400 .00004242 00000+0 85733-4 0 9992 2 25544 51.6329 243.6903 0006573 315.5681 44.4780 15.48789484562249 PCSAT (NO-44) 1 26931U 01043C 26106.55514960 .00000058 00000+0 52474-4 0 9997 2 26931 67.0519 43.6767 0006653 264.3453 95.6890 14.31931581281623 SAUDISAT 1C (SO-50) 1 27607U 02058C 26106.85646821 .00000499 00000+0 77041-4 0 9996 2 27607 64.5523 318.7220 0075549 273.6270 85.6198 14.82910703255362 CUTE-1 (CO-55) 1 27844U 03031E 26106.78011330 .00000189 00000+0 10099-3 0 9999 2 27844 98.6764 116.1074 0009705 11.4859 348.6539 14.24296809182932 CUBESAT XI-IV (CO-57) 1 27848U 03031J 26106.52703389 .00000164 00000+0 91279-4 0 9990 2 27848 98.6796 115.6194 0010020 29.7735 330.4012 14.23587215182607 MOZHAETS 4 (RS22) 1 27939U 03042A 26106.97425944 .00001013 00000+0 16452-3 0 9993 2 27939 98.3459 289.6087 0012531 101.5368 51.2611 14.73356919206536 CUBESAT XI-V 1 28895U 05043F 26106.70384452 .00000865 00000+0 14455-3 0 9992 2 28895 98.2906 261.0661 0014850 44.9479 315.2927 14.72467493 92709 CUTE-1.7+APD II (CO-65) 1 32785U 08021C 26106.91754840 .00002750 00000+0 17874-3 0 9992 2 32785 97.8247 87.1040 0007459 229.8104 130.2472 15.08866185975957 SEEDS II (CO-66) 1 32791U 08021J 26106.72514753 .00011304 00000+0 38407-3 0 9995 2 32791 97.7525 101.7944 0004320 133.9152 226.2445 15.30647529977884 YUBILEINY (RS30) 1 32953U 08025A 26106.93509698 -.00000025 00000+0 -25020-3 0 9991 2 32953 82.5071 33.5334 0020617 84.3077 276.0353 12.43177385812089 KKS-1 (KISEKI) 1 33499U 09002H 26106.92641201 .00000799 00000+0 10528-3 0 9992 2 33499 98.1190 28.4074 0009027 122.9519 237.2563 14.82963092927112 SWISSCUBE 1 35932U 09051B 26106.65882921 .00000639 00000+0 13613-3 0 9997 2 35932 98.4071 13.4711 0007875 50.7783 309.4116 14.62359440880162 BEESAT-1 1 35933U 09051C 26106.70510474 .00000522 00000+0 11495-3 0 9992 2 35933 98.4000 13.2810 0006497 63.9237 296.2631 14.61617266880204 ITUPSAT1 1 35935U 09051E 26106.98493446 .00000499 00000+0 11327-3 0 9990 2 35935 98.4087 12.8212 0008755 71.2126 289.0023 14.60345696879803 XIWANG-1 (HOPE-1) 1 36122U 09072B 26106.91259294 .00000365 00000+0 10711-2 0 9993 2 36122 100.3973 61.7380 0007799 18.3600 341.7794 13.16439220784942 O/OREOS (USA 219) 1 37224U 10062C 26106.71253698 .00001411 00000+0 13975-3 0 9997 2 37224 71.9702 219.5572 0014943 191.1737 168.9104 14.93494774107466 JUGNU 1 37839U 11058B 26106.60177426 .00000397 00000+0 67894-4 0 9999 2 37839 19.9622 322.5771 0018607 116.4331 265.1470 14.13757399750308 SRMSAT 1 37841U 11058D 26106.23675398 .00000363 00000+0 52901-4 0 9998 2 37841 19.9721 74.4374 0011613 241.6849 237.7724 14.11560608749058 STRAND-1 1 39090U 13009E 26106.85771746 .00000180 00000+0 74947-4 0 9997 2 39090 98.3910 288.6049 0009647 59.1284 301.0850 14.37126269688252 ZACUBE-1 (TSHEPISOSAT) 1 39417U 13066B 26106.47430911 .00002430 00000+0 19290-3 0 9996 2 39417 97.8130 68.4832 0044892 98.0747 262.5573 15.00673871671470 GOMX-1 1 39430U 13066Q 26106.82803810 .00000773 00000+0 12396-3 0 9990 2 39430 97.6536 311.1527 0127564 274.7470 83.9179 14.69235408660903 CUBEBUG-2 (LO-74) 1 39440U 13066AA 26106.42583080 .00001398 00000+0 13513-3 0 9997 2 39440 97.8866 55.1835 0056662 231.2901 128.3245 14.93340613667778 FUNCUBE-1 (AO-73) 1 39444U 13066AE 26106.65557582 .00005674 00000+0 36089-3 0 9998 2 39444 97.8238 76.8736 0038541 54.9890 305.4945 15.08603541670383 UWE-3 1 39446U 13066AG 26106.37736610 .00001434 00000+0 12847-3 0 9996 2 39446 97.8662 62.0811 0049673 163.7462 196.5366 14.96537672668334 UNISAT-6 1 40012U 14033C 26106.67299773 .00001692 00000+0 18787-3 0 9994 2 40012 97.7800 260.5098 0043956 271.1218 88.4963 14.87884173637015 DUCHIFAT-1 1 40021U 14033M 26106.85986558 .00039623 00000+0 59407-3 0 9997 2 40021 98.0553 157.9300 0003191 274.5948 85.4940 15.54834835646199 QB50P1 1 40025U 14033R 26106.57353656 .00005388 00000+0 27398-3 0 9992 2 40025 98.0994 113.4418 0010696 80.1464 280.0975 15.17281249643687 LILACSAT-2 1 40908U 15049K 26106.95795933 .00011242 00000+0 20610-3 0 9996 2 40908 97.4739 141.5375 0008865 111.8661 248.3534 15.49430496586260 FOX-1A (AO-85) 1 40967U 15058D 26106.97152051 .00001598 00000+0 15487-3 0 9990 2 40967 64.7726 109.1659 0128406 80.6158 280.9445 14.90592003104448 CAS-2T & KS-1Q 1 41847U 16066G 26106.94150036 .00000363 00000+0 61103-4 0 9992 2 41847 98.3837 183.3668 0341340 315.5432 41.8820 14.44556250495958 RADFXSAT (FOX-1B) 1 43017U 17073E 26106.60085504 .00004798 00000+0 21557-3 0 9996 2 43017 97.4792 335.1035 0153559 180.5300 179.5793 15.11608323456084 DIWATA-2B 1 43678U 18084H 26106.94424387 .00001271 00000+0 10693-3 0 9997 2 43678 98.1048 300.5567 0013775 15.5348 344.6295 15.00152021407039 ES'HAIL 2 1 43700U 18090A 26106.65948296 .00000151 00000+0 00000+0 0 9991 2 43700 0.0154 245.5706 0001135 161.3276 61.1070 1.00272614 27064 FOX-1CLIFF (AO-95) 1 43770U 18099N 26106.63671013 .00006435 00000+0 25760-3 0 9990 2 43770 97.4439 167.1581 0008777 194.4522 165.6467 15.25378997403833 ITASAT 1 43786U 18099AE 26106.94144139 .00004171 00000+0 20653-3 0 9996 2 43786 97.4090 159.6932 0012392 198.8979 161.1797 15.18264545403619 JY1SAT (JO-97) 1 43803U 18099AX 26106.13633634 .00009640 00000+0 31721-3 0 9994 2 43803 97.4187 168.8347 0007363 127.2922 232.8992 15.31697363404127 UWE-4 1 43880U 18111E 26106.71974516 .00017922 00000+0 41496-3 0 9997 2 43880 97.5863 32.4646 0008585 167.3462 192.8002 15.42477857401291 TIANYAN 01 1 44881U 19093C 26106.99000635 -.00000259 00000+0 -23189-4 0 9998 2 44881 97.7563 180.7105 0012157 291.3964 68.5954 14.86417782342325 RS-44 & BREEZE-KM R/B 1 44909U 19096E 26106.47666899 .00000002 00000+0 -29956-4 0 9998 2 44909 82.5263 20.7099 0216439 288.8111 68.9625 12.79747884294452 SALSAT 1 46495U 20068K 26106.57607044 .00004776 00000+0 17294-3 0 9991 2 46495 97.8862 105.9354 0010819 149.7925 210.3939 15.28882964305944 XW-3 (CAS-9) 1 50466U 21131B 26106.96441412 .00000143 00000+0 57994-4 0 9990 2 50466 98.4952 199.6972 0002841 286.7266 73.3611 14.41296467226291 GREENCUBE (IO-117) 1 53109U 22080E 26106.55228240 -.00000003 00000+0 00000+0 0 9995 2 53109 70.1493 319.6911 0008887 303.6327 56.3485 6.42583340 88102 UMKA 1 (RS40S) 1 57172U 23091G 26106.95482843 .00003683 00000+0 17329-3 0 9999 2 57172 97.5106 165.9031 0012070 340.0002 20.0758 15.20131054154707 CUBESX-HSE 3 (RS42S) 1 57178U 23091N 26106.90941179 .00007771 00000+0 27238-3 0 9994 2 57178 97.5140 171.7823 0009577 313.3495 46.6946 15.29704017155058 MONITOR-3 (RS58S) 1 57180U 23091Q 26106.93617003 .00006270 00000+0 24175-3 0 9996 2 57180 97.5134 169.9762 0010567 320.6753 39.3717 15.26636183154941 MONITOR-4 (RS57S) 1 57182U 23091S 26106.91904549 .00006294 00000+0 24196-3 0 9999 2 57182 97.5127 169.9261 0010546 321.2600 38.7882 15.26730464154947 MONITOR-2 (RS39S) 1 57184U 23091U 26106.90193221 .00003150 00000+0 15656-3 0 9996 2 57184 97.5129 165.5900 0010314 333.2823 26.7878 15.18349357154654 SVYATOBOR 1 (RS60S) 1 57187U 23091X 26106.94847612 .00005325 00000+0 21246-3 0 9991 2 57187 97.5141 170.4615 0008155 313.2627 46.7929 15.25585996154972 VIZARD-METEO (RS38S) 1 57189U 23091Z 26106.93651229 .00009810 00000+0 29938-3 0 9998 2 57189 97.5134 175.2759 0005898 288.8784 71.1818 15.34116418155294 NANOZOND 1 (RS49S) 1 57190U 23091AA 26106.74598946 .01369911 13477-2 12558-2 0 9991 2 57190 97.4901 190.8190 0012093 263.0435 96.9474 16.12626503156317 POLYTECH-UNIVERSE 3 (R*) 1 57191U 23091AB 26106.93713176 .00002941 00000+0 14539-3 0 9990 2 57191 97.5105 165.1304 0015074 348.5163 11.5725 15.18545287154657 UTMN 2 (RS27S) 1 57203U 23091AP 26106.89593225 .00007370 00000+0 25188-3 0 9993 2 57203 97.5133 173.3266 0006692 299.0822 60.9748 15.30569702155160 KUZGTU 1 (RS47S) 1 57217U 23091AV 26106.91462923 .00006926 00000+0 25229-3 0 9993 2 57217 97.5112 170.8230 0009771 317.6162 42.4322 15.28484808155017 SONATE-2 1 59112U 24043Q 26106.35524219 .00022415 00000+0 34275-3 0 9994 2 59112 97.5459 253.2024 0007255 74.0118 286.1934 15.54378993118273 MESAT1 1 60209U 24125G 26106.84910656 .00029805 00000+0 40851-3 0 9999 2 60209 97.2386 323.1897 0012502 88.0925 272.1763 15.57237718100004 OOV-CUBE (TUBSAT-30) 1 60240U 24128F 26106.63346015 .00001336 00000+0 11341-3 0 9997 2 60240 61.9934 80.1562 0051365 120.2991 240.3196 15.02468226 96862 COLIBRI-S (RS67S) 1 61746U 24199M 26106.91281757 .00012838 00000+0 27165-3 0 9999 2 61746 97.3089 340.2973 0010403 135.4195 224.7893 15.45204795127946 HORS 3 (RS81S) 1 61753U 24199U 26106.93648229 .00020596 00000+0 35582-3 0 9992 2 61753 97.3067 341.7217 0008702 136.3532 223.8409 15.50972053128052 HORS 4 (RS82S) 1 61754U 24199V 26106.92700936 .00028426 00000+0 43276-3 0 9995 2 61754 97.3029 342.5761 0008156 132.7659 227.4282 15.54442072128110 HORIZON (RS59S) 1 61757U 24199Y 26106.94521517 .00192185 00000+0 80334-3 0 9996 2 61757 97.2945 347.8286 0006702 125.7537 234.4357 15.85101148128459 ARCTICSAT 1 (RS74S) 1 61762U 24199AD 26106.92878547 .00105336 00000+0 69400-3 0 9991 2 61762 97.2987 346.9537 0007136 117.2531 242.9462 15.75304753128392 SIT-2086 1 61764U 24199AF 26106.90915708 .00014230 00000+0 25897-3 0 9996 2 61764 97.3056 342.3594 0008023 125.6507 234.5493 15.49580445124939 HYPERVIEW 1G (RS66S) 1 61772U 24199AP 26106.90167415 .00050288 00000+0 53718-3 0 9995 2 61772 97.3005 344.1149 0009323 132.2544 227.9507 15.63719079125067 ALTAIR (RS65S) 1 61779U 24199AW 26106.89126441 .00006151 00000+0 17799-3 0 9993 2 61779 97.3118 336.6713 0013756 159.2725 200.9079 15.35873161127707 ASRTU-1 (AO-123) 1 61781U 24199AY 26106.89586422 .00005096 00000+0 15308-3 0 9996 2 61781 97.3090 336.1309 0014614 162.1120 198.0641 15.34768683124521 TUSUR GO (RS78S) 1 61782U 24199AZ 26106.91726889 .00243866 23326-4 87594-3 0 9999 2 61782 97.2899 346.8821 0007044 138.6432 221.5375 15.88697098125255 SAMSAT-IONOSPHERE (RS7*) 1 61784U 24199BB 26106.92557927 .00027648 00000+0 44855-3 0 9997 2 61784 97.3050 341.5800 0011131 140.0803 220.1271 15.52652334128042 RTU MIREA 1 (RS51S) 1 61785U 24199BC 26106.93460745 .00032837 00000+0 48775-3 0 9991 2 61785 97.3041 342.1597 0011267 137.3417 222.8714 15.55055145124938 TEVEL2-4 1 63213U 25052D 26106.97581305 .00010952 00000+0 35147-3 0 9991 2 63213 97.3974 3.3457 0002232 21.1471 338.9862 15.32487331 60735 TEVEL2-5 1 63214U 25052E 26106.66355013 .00009667 00000+0 31203-3 0 9993 2 63214 97.3977 2.9982 0002274 22.8676 337.2667 15.32337463 60687 TEVEL2-6 1 63215U 25052F 26106.67437337 .00009364 00000+0 30269-3 0 9990 2 63215 97.3982 2.9942 0002384 20.8073 339.3266 15.32298464 60686 TEVEL2-1 1 63217U 25052H 26106.94485867 .00010222 00000+0 33488-3 0 9994 2 63217 97.3946 2.9569 0002979 31.2173 328.9245 15.31842118 60715 TEVEL2-3 1 63218U 25052J 26106.68016683 .00009376 00000+0 30705-3 0 9999 2 63218 97.3955 2.7081 0002983 29.4647 330.6762 15.31879258 60677 TEVEL2-2 1 63219U 25052K 26106.94543017 .00010255 00000+0 33591-3 0 9999 2 63219 97.3953 2.9591 0002947 28.7905 331.3498 15.31846440 60719 TEVEL2-9 1 63237U 25052AD 26106.65098781 .00009261 00000+0 32104-3 0 9994 2 63237 97.4013 2.1650 0006638 19.7430 340.4066 15.30024822 60611 TEVEL2-7 1 63238U 25052AE 26106.68106053 .00008855 00000+0 30941-3 0 9995 2 63238 97.4015 2.1349 0006755 19.7114 340.4386 15.29777773 60611 TEVEL2-8 1 63239U 25052AF 26106.62319098 .00008697 00000+0 30415-3 0 9995 2 63239 97.4010 2.0558 0006812 21.2019 338.9503 15.29756621 60605 HADES-ICM 1 63492U 25052BN 26105.68886659 .00169609 00000+0 13067-2 0 9997 2 63492 97.3880 7.8439 0003839 83.5498 276.6202 15.71459742 60929 INNOSAT 16 (RS92S7) 1 64878U 25155C 26106.91798593 .00004587 00000+0 18776-3 0 9992 2 64878 97.4520 74.2926 0012045 49.3963 310.8320 15.24756056 71330 GEOSCAN 6 (RS92S6) 1 64879U 25155D 26106.94745855 .00007354 00000+0 26395-3 0 9990 2 64879 97.4516 75.3370 0009346 46.5649 313.6367 15.28943277 71408 GEOSCAN 1 (RS92S1) 1 64880U 25155E 26106.90630938 .00007770 00000+0 27459-3 0 9997 2 64880 97.4513 75.3953 0009300 47.1401 313.0618 15.29436407 71403 239ALFEROV (RS61S) 1 64881U 25155F 26106.95564942 .00009544 00000+0 31840-3 0 9994 2 64881 97.4516 75.8181 0008948 47.7220 312.4778 15.31243182 71439 GEOSCAN 2 (RS92S2) 1 64890U 25155Q 26106.91120078 .00007944 00000+0 27823-3 0 9996 2 64890 97.4511 75.5275 0008244 36.9291 323.2515 15.29731061 71414 GEOSCAN 5 (RS92S5) 1 64891U 25155R 26106.95751653 .00009524 00000+0 31459-3 0 9996 2 64891 97.4508 75.9337 0008043 54.5110 305.6880 15.31572832 71441 GEOSCAN 4 (RS92S4) 1 64892U 25155S 26106.94712582 .00009922 00000+0 32640-3 0 9999 2 64892 97.4512 75.9560 0008079 55.0931 305.1069 15.31693080 71444 GEOSCAN 3 (RS92S3) 1 64893U 25155T 26106.95384328 .00011498 00000+0 35948-3 0 9999 2 64893 97.4501 76.2344 0007948 57.8338 302.3675 15.33286441 71467 INNOSAT 3 (RS92S0) 1 64894U 25155U 26106.91045456 .00024252 00000+0 61582-3 0 9997 2 64894 97.4463 77.1559 0007581 62.8621 297.3397 15.39622147 71521 KNACKSAT-2 1 67683U 98067XZ 26106.74661488 .00026591 00000+0 39429-3 0 9991 2 67683 51.6301 242.2898 0011586 329.6491 30.3828 15.54969579 10700